Toronto Pearson, Ontario

10:39 PM EDT on October 16, 2017 (GMT -0400)
Toronto-Pearson International

Weather History for CYYZ - November, 2012

Change the Weather History Date:

Tuesday, November 27, 2012

  Actual Average Record
Temperature  
Mean Temperature 32 °F -  
Max Temperature 37 °F 34 °F 59 °F (2015)
Min Temperature 27 °F 20 °F 15 °F (1996)
Degree Days  
Heating Degree Days 33    
Moisture  
Dew Point 21 °F    
Average Humidity 61    
Maximum Humidity 75    
Minimum Humidity 37    
Precipitation  
Precipitation 0.00 in 0.09 in - ()
Sea Level Pressure  
Sea Level Pressure 30.27 in    
Wind  
Wind Speed 6 mph ()    
Max Wind Speed 12 mph    
Max Gust Speed -    
Visibility 15.0 miles    
Events      
Averages and records for this station are not official NWS values.
T = Trace of Precipitation, MM = Missing Value Source: Averaged Metar Reports

Daily Weather History Graph

Daily Weather History Graph

Search for Another Location

Airport or City:

Trip Planner

Search our weather history database for the weather conditions in past years. The results will help you decide how hot, cold, wet, or windy it might be!

Date:

Astronomy

Nov. 27, 2012 Rise Set
Actual Time 7:28 AM EST 4:44 PM EST
Civil Twilight 6:56 AM EST 5:16 PM EST
Nautical Twilight 6:20 AM EST 5:51 PM EST
Astronomical Twilight 5:46 AM EST 6:26 PM EST
Moon 4:15 PM EST (11/27) 6:30 AM EST (11/27)
Length of Visible Light 10h 20m
Length of Day
9h 16m
Waxing Gibbous, 99% of the Moon is Illuminated
Nov 27
Waxing Gibbous
Nov 28
Full
Dec 6
Last Quarter
Dec 13
New
Dec 20
First Quarter

Hourly Weather History & Observations

Time (EST) Temp. Windchill Dew Point Humidity Pressure Visibility Wind Dir Wind Speed Gust Speed Precip Events Conditions
12:00 AM 28.4 °F 22.2 °F 19.4 °F 69% 30.24 in 15.0 mi West 5.8 mph - N/A   Partly Cloudy
1:00 AM 29 °F - 20 °F 57% 30.24 in 15 mi WNW 3.5 mph - -   Overcast
1:00 AM 28.4 °F 24.6 °F 19.4 °F 69% 30.24 in 15.0 mi WNW 3.5 mph - N/A   Overcast
2:00 AM 28.4 °F 21.2 °F 21.2 °F 74% 30.24 in 15.0 mi NNW 6.9 mph - N/A   Overcast
3:00 AM 30.2 °F 26.7 °F 21.2 °F 69% 30.25 in 15.0 mi NW 3.5 mph - N/A   Overcast
4:00 AM 30.2 °F 26.7 °F 23.0 °F 75% 30.24 in 15.0 mi West 3.5 mph - N/A   Overcast
5:00 AM 30.2 °F 23.4 °F 23.0 °F 75% 30.25 in 15.0 mi WNW 6.9 mph - N/A   Overcast
6:00 AM 30.2 °F 23.4 °F 23.0 °F 75% 30.25 in 15.0 mi NW 6.9 mph - N/A   Overcast
7:00 AM 31 °F - 23 °F 62% 30.26 in 15 mi WNW 5.8 mph - -   Overcast
7:00 AM 32.0 °F 25.6 °F 23.0 °F 69% 30.26 in 15.0 mi WNW 6.9 mph - N/A   Overcast
8:00 AM 32.0 °F 24.8 °F 23.0 °F 69% 30.28 in 15.0 mi West 8.1 mph - N/A   Mostly Cloudy
9:00 AM 33.8 °F 27.0 °F 23.0 °F 65% 30.30 in 15.0 mi West 8.1 mph - N/A   Mostly Cloudy
10:00 AM 35.6 °F 28.6 °F 21.2 °F 56% 30.31 in 15.0 mi West 9.2 mph - N/A   Scattered Clouds
11:00 AM 37.4 °F 30.3 °F 21.2 °F 52% 30.31 in 15.0 mi NW 10.4 mph - N/A   Mostly Cloudy
11:06 AM 35.6 °F 27.5 °F - N/A% - 15.0 mi NW 11.5 mph - N/A   Mostly Cloudy
12:00 PM 35.6 °F 29.2 °F 21.2 °F 56% 30.30 in 15.0 mi NW 8.1 mph - N/A   Mostly Cloudy
1:00 PM 36 °F - 19 °F 37% 30.28 in 15 mi NNW 6.9 mph - -   Mostly Cloudy
1:00 PM 35.6 °F 29.9 °F 19.4 °F 52% 30.28 in 15.0 mi NNW 6.9 mph - N/A   Mostly Cloudy
2:00 PM 35.6 °F 30.7 °F 21.2 °F 56% 30.27 in 15.0 mi North 5.8 mph - N/A   Mostly Cloudy
3:00 PM 35.6 °F 30.7 °F 19.4 °F 52% 30.27 in 15.0 mi WNW 5.8 mph - N/A   Overcast
4:00 PM 35.6 °F 28.6 °F 19.4 °F 52% 30.27 in 15.0 mi West 9.2 mph - N/A   Overcast
5:00 PM 33.8 °F 25.8 °F 17.6 °F 52% 30.27 in 15.0 mi West 10.4 mph - N/A   Overcast
6:00 PM 33.8 °F 27.0 °F 19.4 °F 56% 30.28 in 15.0 mi West 8.1 mph - N/A   Mostly Cloudy
7:00 PM 33.8 °F 26.4 °F 19.4 °F 56% 30.28 in 15.0 mi West 9.2 mph - N/A   Mostly Cloudy
8:00 PM 32.0 °F 26.4 °F 19.4 °F 60% 30.28 in 15.0 mi WSW 5.8 mph - N/A   Mostly Cloudy
9:00 PM 32.0 °F 28.7 °F 17.6 °F 55% 30.27 in 15.0 mi SW 3.5 mph - N/A   Partly Cloudy
10:00 PM 32.0 °F 28.7 °F 17.6 °F 55% 30.26 in 15.0 mi South 3.5 mph - N/A   Partly Cloudy
11:00 PM 30.2 °F 25.4 °F 19.4 °F 64% 30.26 in 15.0 mi SW 4.6 mph - N/A   Mostly Cloudy